Change the Weather History Date:

Friday, October 18, 2013

  Actual Average Record
Temperature  
Mean Temperature 89 °F -  
Max Temperature 108 °F - - ()
Min Temperature 70 °F - - ()
Cooling Degree Days 24    
Growing Degree Days 39 (Base 50)    
Moisture  
Dew Point 62 °F    
Average Humidity 45    
Maximum Humidity 78    
Minimum Humidity 8    
Precipitation  
Precipitation 0.00 in - - ()
Sea Level Pressure  
Sea Level Pressure 29.82 in    
Wind  
Wind Speed 6 mph ()    
Max Wind Speed 22 mph    
Max Gust Speed 33 mph    
Visibility 6.3 miles    
Events      
T = Trace of Precipitation, MM = Missing Value Source: Averaged Metar Reports

Daily Weather History Graph

Daily Weather History Graph

Search for Another Location

Airport or City:

Trip Planner

Search our weather history database for the weather conditions in past years. The results will help you decide how hot, cold, wet, or windy it might be!

Date:

Astronomy

Oct. 18, 2013 Rise Set
Actual Time 4:55 AM AWST 5:24 PM AWST
Civil Twilight 4:34 AM AWST 5:46 PM AWST
Nautical Twilight 4:08 AM AWST 6:12 PM AWST
Astronomical Twilight 3:42 AM AWST 6:38 PM AWST
Moon 4:49 PM AWST (10/18) 4:06 AM AWST (10/18)
Length of Visible Light 13h 12m
Length of Day
12h 28m
Waxing Gibbous, 99% of the Moon is Illuminated
Oct 18
Waxing Gibbous
Oct 19
Full
Oct 27
Last Quarter
Nov 3
New
Nov 10
First Quarter

Hourly Weather History & Observations

Time (AWST) Temp. Heat Index Dew Point Humidity Pressure Visibility Wind Dir Wind Speed Gust Speed Precip Events Conditions
12:00 AM 78 °F - 59 °F 42% 29.83 in - NNE 8.1 mph - -  
12:00 AM 78.8 °F - 59.0 °F 51% 29.83 in 6.2 mi NNE 8.1 mph - N/A   Unknown
12:30 AM 77.0 °F - 60.8 °F 57% 29.83 in 6.2 mi Calm Calm - N/A   Unknown
1:00 AM 77.0 °F - 60.8 °F 57% 29.80 in 6.2 mi Calm Calm - N/A   Unknown
1:30 AM 75.2 °F - 60.8 °F 61% 29.80 in 6.2 mi Calm Calm - N/A   Unknown
2:00 AM 74 °F - 58 °F 48% 29.80 in - Calm Calm - -  
2:00 AM 73.4 °F - 59.0 °F 61% 29.80 in 6.2 mi Calm Calm - N/A   Unknown
2:30 AM 75.2 °F - 60.8 °F 61% 29.80 in 6.2 mi NNE 1.2 mph - N/A   Unknown
3:00 AM 75 °F - 62 °F 54% 29.80 in - NNE 5.8 mph - -  
3:00 AM 75.2 °F - 60.8 °F 61% 29.80 in 6.2 mi NNE 5.8 mph - N/A   Unknown
3:30 AM 73.4 °F - 60.8 °F 65% 29.80 in 6.2 mi WNW 4.6 mph - N/A   Unknown
4:00 AM 73.4 °F - 62.6 °F 69% 29.83 in 6.2 mi Calm Calm - N/A   Unknown
4:30 AM 73.4 °F - 64.4 °F 73% 29.83 in 6.2 mi East 4.6 mph - N/A   Unknown
5:00 AM 71.6 °F - 64.4 °F 78% 29.86 in 6.2 mi South 4.6 mph - N/A   Unknown
5:30 AM 73.4 °F - 64.4 °F 73% 29.86 in 6.2 mi SW 3.5 mph - N/A   Unknown
6:00 AM 78 °F - 65 °F 56% 29.87 in 12 mi SSE 3.5 mph - -   Partly Cloudy
6:00 AM 78.8 °F - 64.4 °F 61% 29.86 in 6.2 mi SSE 3.5 mph - N/A   Unknown
6:30 AM 80.6 °F 82.3 °F 64.4 °F 58% 29.89 in 6.2 mi South 3.5 mph - N/A   Unknown
7:00 AM 86.0 °F 88.2 °F 66.2 °F 51% 29.92 in 6.2 mi NNE 6.9 mph - N/A   Unknown
7:30 AM 87.8 °F 91.4 °F 68.0 °F 52% 29.92 in 6.2 mi North 8.1 mph - N/A   Unknown
8:00 AM 90 °F - 68 °F 39% 29.91 in - NNE 10.4 mph - -  
8:00 AM 89.6 °F 93.4 °F 68.0 °F 49% 29.92 in 6.2 mi NNE 10.4 mph - N/A   Unknown
8:30 AM 91.4 °F 95.4 °F 68.0 °F 46% 29.92 in 6.2 mi North 8.1 mph - N/A   Unknown
9:00 AM 93 °F - 67 °F 33% 29.90 in - NNW 6.9 mph - -  
9:00 AM 93.2 °F 97.7 °F 68.0 °F 44% 29.89 in 6.2 mi NNW 6.9 mph - N/A   Unknown
9:30 AM 98.6 °F 99.4 °F 60.8 °F 29% 29.89 in 6.2 mi North 8.1 mph - N/A   Unknown
10:00 AM 98.6 °F 100.0 °F 62.6 °F 30% 29.86 in 6.2 mi North 8.1 mph - N/A   Unknown
10:30 AM 100.4 °F 101.3 °F 60.8 °F 27% 29.86 in 6.2 mi North 6.9 mph - N/A   Unknown
11:00 AM 100 °F - 58 °F 16% 29.84 in - NE 6.9 mph - -  
11:00 AM 100.4 °F 100.2 °F 59.0 °F 25% 29.83 in 6.2 mi NE 6.9 mph - N/A   Unknown
11:30 AM 102.2 °F 101.4 °F 57.2 °F 22% 29.80 in 6.2 mi NNW 10.4 mph - N/A   Unknown
12:00 PM 104.0 °F 102.3 °F 53.6 °F 19% 29.80 in 6.2 mi East 8.1 mph - N/A   Unknown
12:30 PM 104.0 °F - 51.8 °F 17% 29.77 in 6.2 mi NE 8.1 mph - N/A   Unknown
1:00 PM 104.0 °F - 48.2 °F 15% 29.77 in 6.2 mi ENE 10.4 mph - N/A   Unknown
1:30 PM 105.8 °F - 41.0 °F 11% 29.74 in 6.2 mi East 15.0 mph - N/A   Unknown
2:00 PM 105 °F - 47 °F 8% 29.74 in - ENE 8.1 mph - -  
2:00 PM 105.8 °F - 48.2 °F 14% 29.74 in 6.2 mi ENE 8.1 mph - N/A   Unknown
2:30 PM 105.8 °F - 44.6 °F 13% 29.71 in 6.2 mi East 11.5 mph - N/A   Unknown
3:00 PM 104 °F - 53 °F 11% 29.72 in 6 mi NNE 15.0 mph - -   Partly Cloudy
3:00 PM 104.0 °F 102.3 °F 53.6 °F 19% 29.71 in 6.2 mi NNE 15.0 mph - N/A   Unknown
3:30 PM 102.2 °F 100.9 °F 55.4 °F 21% 29.71 in 6.2 mi North 12.7 mph - N/A   Unknown
4:00 PM 100.4 °F 98.8 °F 55.4 °F 22% 29.71 in 6.2 mi NNW 15.0 mph - N/A   Unknown
4:30 PM 96.8 °F 100.7 °F 66.2 °F 37% 29.74 in 6.2 mi North 18.4 mph - N/A   Unknown
5:00 PM 94 °F - 67 °F 32% 29.75 in - North 13.8 mph - -  
5:00 PM 95.0 °F 99.5 °F 68.0 °F 41% 29.74 in 6.2 mi North 13.8 mph - N/A   Unknown
5:30 PM 91.4 °F 95.4 °F 68.0 °F 46% 29.77 in 6.2 mi North 8.1 mph - N/A   Unknown
6:00 PM 92 °F - 68 °F 35% 29.79 in - North 11.5 mph - -  
6:00 PM 91.4 °F 95.4 °F 68.0 °F 46% 29.80 in 6.2 mi North 11.5 mph - N/A   Unknown
6:28 PM 89.6 °F 91.1 °F 64.4 °F 43% 29.83 in 6.2 mi NE 19.6 mph 33.4 mph N/A   Unknown
6:30 PM 89.6 °F 91.1 °F 64.4 °F 43% 29.83 in 6.2 mi NE 21.9 mph 33.4 mph N/A   Unknown
7:00 PM 87.8 °F 91.4 °F 68.0 °F 52% 29.86 in 6.2 mi NNE 18.4 mph - N/A   Unknown
7:30 PM 86.0 °F 88.2 °F 66.2 °F 51% 29.86 in 6.2 mi North 10.4 mph - N/A   Unknown
8:00 PM 83 °F - 67 °F 50% 29.88 in - NW 5.8 mph - -  
8:00 PM 84.2 °F 87.3 °F 68.0 °F 58% 29.86 in 6.2 mi NW 5.8 mph - N/A   Unknown
8:30 PM 82.4 °F 85.4 °F 68.0 °F 62% 29.86 in 6.2 mi NW 5.8 mph - N/A   Unknown
9:00 PM 82 °F - 68 °F 53% 29.87 in - WNW 4.6 mph - -  
9:00 PM 82.4 °F 85.4 °F 68.0 °F 62% 29.86 in 6.2 mi WNW 4.6 mph - N/A   Unknown
9:30 PM 82.4 °F 85.4 °F 68.0 °F 62% 29.86 in 6.2 mi Calm Calm - N/A   Unknown
10:00 PM 80.6 °F 83.9 °F 69.8 °F 70% 29.86 in 6.2 mi Calm Calm - N/A   Unknown
10:30 PM 78.8 °F - 68.0 °F 69% 29.86 in 6.2 mi NNE 5.8 mph - N/A   Unknown
11:00 PM 79 °F - 67 °F 58% 29.86 in - NNW 6.9 mph - -  
11:00 PM 78.8 °F - 66.2 °F 65% 29.86 in 6.2 mi NNW 6.9 mph - N/A   Unknown
11:30 PM 78.8 °F - 68.0 °F 69% 29.86 in 6.2 mi NW 5.8 mph - N/A   Unknown